Simultaneous Nadir Overpasses (SNOs) Predictions

Prediction of SNOs between METOP-B and TERRA Satellite Orbit:

Table of predicted SNOs for the next 14.0 days since TLE Epoch: 9/25/2021
Index Date (METOP-B) Time (METOP-B) Lat,Lon (METOP-B) SZA (METOP-B ) Date (TERRA) Time (TERRA) Lat,Lon (TERRA) SZA (TERRA ) Distance(km) Time Diff (sec)
1 09/25/2021 20:48:41 -81.25, 92.48 94.82 09/25/2021 20:49:26 -81.26, 92.37 94.81 1.84 45
2 09/25/2021 21:39:21 81.26, -99.93 85.23 09/25/2021 21:38:52 81.26, -99.89 85.22 0.79 29
3 09/28/2021 16:23:04 -81.25, 158.57 93.75 09/28/2021 16:23:39 -81.24, 158.51 93.74 1.24 35
4 09/28/2021 17:13:43 81.26, -33.50 86.35 09/28/2021 17:13:04 81.27, -33.41 86.34 1.64 39
5 10/01/2021 11:57:26 -81.25,-134.98 92.63 10/01/2021 11:57:51 -81.24,-135.03 92.63 1.15 25
6 10/01/2021 12:48:05 81.26, 32.91 87.46 10/01/2021 12:47:16 81.27, 33.02 87.45 1.97 49
7 10/04/2021 07:31:47 -81.25, -68.55 91.52 10/04/2021 07:32:02 -81.24, -68.63 91.53 1.62 15
8 10/04/2021 08:22:26 81.26, 99.29 88.56 10/04/2021 08:21:27 81.26, 99.39 88.54 1.76 59
9 10/07/2021 03:06:08 -81.26, -1.76 90.38 10/07/2021 03:06:13 -81.26, -1.90 90.39 2.40 5



Historial Predications of SNOs between METOP-B and TERRA
